When you browse on this site, cookies collect data to enhance your experience and personalize the content and advertising you see.
Visit our Privacy Policy to learn more. By continuing to use the site, you agree to this use of cookies and data.
  • In Deutschland
  • Länderverzeichnis
  • Für 7 Tage
  • Wassertemperatur
  • Satellitenkarten
  • Wetterkarte
  • Widgets
  • user-avatar
    Anmelden

    Stündliche Wetter Verhniy Cipikan

    Heute, 18 November, Sonntag

    Zeit Temperatur Niederschläge Wind Luftdruck Luftfeuchtigkeit
    00:00 -23°C° 0 mm 2 m/S 657 mmHg 85%
    01:00 -24°C° 0 mm 2 m/S 657 mmHg 85%
    02:00 -25°C° 0 mm 2 m/S 656 mmHg 85%
    03:00 -25°C° 0 mm 2 m/S 656 mmHg 85%
    04:00 -26°C° 0 mm 2 m/S 656 mmHg 85%
    05:00 -26°C° 0 mm 2 m/S 656 mmHg 85%
    06:00 -26°C° 0 mm 2 m/S 656 mmHg 85%
    07:00 -27°C° 0 mm 2 m/S 657 mmHg 85%
    08:00 -27°C° 0 mm 2 m/S 657 mmHg 85%
    09:00 -26°C° 0 mm 2 m/S 657 mmHg 80%
    10:00 -26°C° 0 mm 2 m/S 657 mmHg 76%
    11:00 -25°C° 0 mm 2 m/S 657 mmHg 72%
    12:00 -24°C° 0 mm 2 m/S 657 mmHg 69%
    13:00 -24°C° 0 mm 2 m/S 657 mmHg 67%
    14:00 -24°C° 0 mm 2 m/S 657 mmHg 64%
    15:00 -24°C° 0 mm 2 m/S 656 mmHg 68%
    16:00 -22°C° 0 mm 1 m/S 656 mmHg 72%
    17:00 -23°C° 0 mm 1 m/S 656 mmHg 76%
    18:00 -24°C° 0 mm 1 m/S 656 mmHg 78%
    19:00 -24°C° 0 mm 1 m/S 656 mmHg 79%
    20:00 -24°C° 0 mm 1 m/S 656 mmHg 80%
    21:00 -25°C° 0 mm 1 m/S 656 mmHg 81%
    22:00 -25°C° 0 mm 1 m/S 656 mmHg 82%
    23:00 -25°C° 0 mm 1 m/S 656 mmHg 82%

    Morgen, 19 November, Montag

    Zeit Temperatur Niederschläge Wind Luftdruck Luftfeuchtigkeit
    00:00 -25°C° 0 mm 1 m/S 656 mmHg 82%
    01:00 -27°C° 0 mm 1 m/S 656 mmHg 82%
    02:00 -27°C° 0 mm 1 m/S 656 mmHg 82%
    03:00 -27°C° 0 mm 1 m/S 656 mmHg 82%
    04:00 -27°C° 0 mm 1 m/S 656 mmHg 82%
    05:00 -27°C° 0 mm 1 m/S 655 mmHg 82%
    06:00 -27°C° 0 mm 1 m/S 656 mmHg 82%
    07:00 -28°C° 0 mm 1 m/S 656 mmHg 82%
    08:00 -28°C° 0 mm 1 m/S 656 mmHg 81%
    09:00 -27°C° 0 mm 1 m/S 656 mmHg 77%
    10:00 -24°C° 0 mm 1 m/S 657 mmHg 73%
    11:00 -23°C° 0 mm 1 m/S 657 mmHg 69%
    12:00 -23°C° 0 mm 1 m/S 657 mmHg 67%
    13:00 -22°C° 0 mm 1 m/S 657 mmHg 66%
    14:00 -21°C° 0 mm 1 m/S 657 mmHg 64%
    15:00 -22°C° 0 mm 1 m/S 657 mmHg 69%
    16:00 -23°C° 0 mm 1 m/S 657 mmHg 73%
    17:00 -24°C° 0 mm 1 m/S 657 mmHg 78%
    18:00 -24°C° 0 mm 1 m/S 657 mmHg 78%
    19:00 -24°C° 0 mm 1 m/S 657 mmHg 79%
    20:00 -25°C° 0 mm 1 m/S 657 mmHg 80%
    21:00 -25°C° 0 mm 1 m/S 657 mmHg 81%
    22:00 -25°C° 0 mm 1 m/S 657 mmHg 81%
    23:00 -25°C° 0 mm 1 m/S 657 mmHg 82%

    übermorgen, 20 November, Dienstag

    Zeit Temperatur Niederschläge Wind Luftdruck Luftfeuchtigkeit
    00:00 -24°C° 0 mm 1 m/S 657 mmHg 82%
    01:00 -24°C° 0 mm 1 m/S 657 mmHg 82%
    02:00 -24°C° 0 mm 1 m/S 657 mmHg 82%
    03:00 -23°C° 0 mm 1 m/S 657 mmHg 83%
    04:00 -23°C° 0 mm 1 m/S 656 mmHg 83%
    05:00 -23°C° 0 mm 1 m/S 656 mmHg 84%
    06:00 -23°C° 0 mm 1 m/S 656 mmHg 85%
    07:00 -23°C° 0 mm 1 m/S 656 mmHg 85%
    08:00 -23°C° 0 mm 1 m/S 656 mmHg 86%
    09:00 -21°C° 0 mm 1 m/S 656 mmHg 84%
    10:00 -20°C° 0 mm 1 m/S 655 mmHg 82%
    11:00 -21°C° 0 mm 2 m/S 655 mmHg 80%
    12:00 -20°C° 0 mm 2 m/S 655 mmHg 79%
    13:00 -19°C° 0 mm 2 m/S 655 mmHg 79%
    14:00 -18°C° 0 mm 2 m/S 655 mmHg 79%
    15:00 -19°C° 0 mm 2 m/S 655 mmHg 83%
    16:00 -20°C° 0 mm 2 m/S 655 mmHg 87%
    17:00 -18°C° 0 mm 1 m/S 654 mmHg 91%
    18:00 -21°C° 0 mm 2 m/S 655 mmHg 90%
    19:00 -23°C° 0 mm 2 m/S 655 mmHg 90%
    20:00 -23°C° 0 mm 2 m/S 655 mmHg 89%
    21:00 -24°C° 0 mm 2 m/S 655 mmHg 89%
    22:00 -25°C° 0 mm 2 m/S 655 mmHg 89%
    23:00 -25°C° 0 mm 2 m/S 656 mmHg 89%

    21 November, Mittwoch

    Zeit Temperatur Niederschläge Wind Luftdruck Luftfeuchtigkeit
    00:00 -26°C° 0 mm 2 m/S 656 mmHg 90%
    01:00 -26°C° 0 mm 2 m/S 656 mmHg 90%
    02:00 -27°C° 0 mm 2 m/S 656 mmHg 90%
    03:00 -27°C° 0 mm 2 m/S 657 mmHg 90%
    04:00 -27°C° 0 mm 2 m/S 657 mmHg 90%
    05:00 -28°C° 0 mm 2 m/S 657 mmHg 89%
    06:00 -28°C° 0 mm 2 m/S 657 mmHg 89%
    07:00 -28°C° 0 mm 2 m/S 658 mmHg 88%
    08:00 -28°C° 0 mm 2 m/S 658 mmHg 87%
    09:00 -27°C° 0 mm 2 m/S 658 mmHg 83%
    10:00 -23°C° 0 mm 1 m/S 659 mmHg 79%
    11:00 -22°C° 0 mm 1 m/S 659 mmHg 74%
    12:00 -21°C° 0 mm 1 m/S 659 mmHg 72%
    13:00 -20°C° 0 mm 1 m/S 659 mmHg 71%
    14:00 -19°C° 0 mm 1 m/S 659 mmHg 69%
    15:00 -20°C° 0 mm 1 m/S 659 mmHg 72%
    16:00 -21°C° 0 mm 1 m/S 659 mmHg 76%
    17:00 -22°C° 0 mm 1 m/S 659 mmHg 79%
    18:00 -22°C° 0 mm 1 m/S 659 mmHg 79%
    19:00 -22°C° 0 mm 1 m/S 659 mmHg 79%
    20:00 -22°C° 0 mm 1 m/S 659 mmHg 78%
    21:00 -22°C° 0 mm 1 m/S 659 mmHg 78%
    22:00 -21°C° 0 mm 1 m/S 659 mmHg 78%
    23:00 -21°C° 0 mm 1 m/S 659 mmHg 78%

    22 November, Donnerstag

    Zeit Temperatur Niederschläge Wind Luftdruck Luftfeuchtigkeit
    00:00 -21°C° 0 mm 1 m/S 659 mmHg 78%
    01:00 -21°C° 0 mm 1 m/S 659 mmHg 79%
    02:00 -21°C° 0 mm 1 m/S 659 mmHg 79%
    03:00 -21°C° 0 mm 1 m/S 658 mmHg 79%
    04:00 -21°C° 0 mm 1 m/S 658 mmHg 80%
    05:00 -20°C° 0 mm 1 m/S 658 mmHg 80%
    06:00 -20°C° 0 mm 1 m/S 658 mmHg 80%
    07:00 -20°C° 0 mm 1 m/S 658 mmHg 80%
    08:00 -20°C° 0 mm 1 m/S 658 mmHg 80%
    09:00 -19°C° 0 mm 1 m/S 658 mmHg 79%
    10:00 -17°C° 0 mm 1 m/S 658 mmHg 77%
    11:00 -16°C° 0 mm 1 m/S 659 mmHg 75%
    12:00 -15°C° 0 mm 1 m/S 658 mmHg 75%
    13:00 -14°C° 0 mm 1 m/S 658 mmHg 75%
    14:00 -13°C° 0 mm 1 m/S 658 mmHg 76%
    15:00 -14°C° 0 mm 1 m/S 658 mmHg 78%
    16:00 -15°C° 0 mm 1 m/S 658 mmHg 81%
    17:00 -16°C° 0 mm 1 m/S 658 mmHg 83%
    18:00 -17°C° 0 mm 1 m/S 658 mmHg 84%
    19:00 -17°C° 0 mm 1 m/S 658 mmHg 84%
    20:00 -17°C° 0 mm 1 m/S 658 mmHg 85%
    21:00 -17°C° 0 mm 1 m/S 658 mmHg 85%
    22:00 -17°C° 0 mm 1 m/S 658 mmHg 85%
    23:00 -17°C° 0 mm 1 m/S 658 mmHg 85%

    23 November, Freitag

    Zeit Temperatur Niederschläge Wind Luftdruck Luftfeuchtigkeit
    00:00 -17°C° 0 mm 1 m/S 658 mmHg 85%
    01:00 -17°C° 0 mm 1 m/S 657 mmHg 85%
    02:00 -17°C° 0 mm 1 m/S 657 mmHg 86%
    03:00 -17°C° 0 mm 1 m/S 657 mmHg 86%
    04:00 -17°C° 0 mm 1 m/S 657 mmHg 86%
    05:00 -17°C° 0 mm 1 m/S 657 mmHg 86%
    06:00 -17°C° 0 mm 1 m/S 657 mmHg 86%
    07:00 -17°C° 0 mm 1 m/S 657 mmHg 86%
    08:00 -17°C° 0 mm 1 m/S 657 mmHg 86%
    09:00 -16°C° 0 mm 1 m/S 657 mmHg 84%
    10:00 -14°C° 0 mm 1 m/S 658 mmHg 81%
    11:00 -13°C° 0 mm 1 m/S 658 mmHg 79%
    12:00 -12°C° 0 mm 1 m/S 658 mmHg 79%
    13:00 -12°C° 0 mm 1 m/S 658 mmHg 79%
    14:00 -11°C° 0 mm 1 m/S 658 mmHg 78%
    15:00 -13°C° 0 mm 1 m/S 658 mmHg 80%
    16:00 -14°C° 0 mm 1 m/S 657 mmHg 82%
    17:00 -15°C° 0 mm 1 m/S 657 mmHg 84%
    18:00 -15°C° 0 mm 1 m/S 657 mmHg 84%
    19:00 -15°C° 0 mm 1 m/S 657 mmHg 84%
    20:00 -16°C° 0 mm 1 m/S 658 mmHg 84%
    21:00 -16°C° 0 mm 1 m/S 658 mmHg 84%
    22:00 -16°C° 0 mm 1 m/S 658 mmHg 83%
    23:00 -16°C° 0 mm 1 m/S 658 mmHg 83%
    Mehr zeigen